Location: Ago
(8.4667°N, 4.4167°E)
Time: 08:44:58
(UTC+00:00)

Cosmos 1331 Rocket - Pass Details

Date: 06 June 2020
Orbit: 749 x 778 km, 74.0° (Epoch: 05 July)

Event Time Altitude Azimuth Distance (km) Brightness Sun altitude
Rises 19:16:19 0° 192° (SSW) 3,187 7.1 -18.1°
Reaches altitude 10° 19:18:40 10° 192° (SSW) 2,262 6.3 -18.6°
Maximum altitude 19:23:48 90° 99° (E) 751 3.9 -19.7°
Drops below altitude 10° 19:28:56 10° 13° (NNE) 2,262 6.6 -20.9°
Sets 19:31:17 0° 13° (NNE) 3,188 7.4 -21.4°
